| time (UTC) | temp C | wind direction | speed KPH | gust KPH | rain 1hr cm | rain 24hr cm | rain mn cm | humidity % | barometer mb |
| 20260902165412 | 26 | 15 | 4.8 | 11.3 | 0.00 | 1.22 | 0.00 | 45 | 1016.5 |
| 20260902164512 | 26 | 48 | 4.8 | 17.7 | 0.00 | 1.22 | 0.00 | 45 | 1016.5 |
| 20260902163612 | 26 | 68 | 4.8 | 17.7 | 0.00 | 1.22 | 0.00 | 41 | 1016.5 |
| 20260902162712 | 26 | 337 | 0.0 | 6.4 | 0.00 | 1.22 | 0.00 | 41 | 1016.5 |
| 20260902161812 | 25 | 82 | 1.6 | 8.0 | 0.00 | 1.22 | 0.00 | 44 | 1016.5 |
| 20260902160912 | 24 | 82 | 4.8 | 11.3 | 0.00 | 1.22 | 0.00 | 44 | 1016.5 |
| 20260902160012 | 23 | 81 | 1.6 | 8.0 | 0.00 | 1.22 | 0.00 | 47 | 1016.5 |
| 20260902155412 | 23 | 66 | 3.2 | 8.0 | 0.00 | 1.22 | 0.00 | 49 | 1016.5 |
| 20260902154512 | 23 | 62 | 6.4 | 12.9 | 0.00 | 1.22 | 0.00 | 50 | 1016.5 |
| 20260902153612 | 22 | 65 | 6.4 | 12.9 | 0.00 | 1.22 | 0.00 | 51 | 1016.5 |
| 20260902152712 | 22 | 47 | 3.2 | 12.9 | 0.00 | 1.22 | 0.00 | 50 | 1016.5 |
| 20260902151812 | 22 | 45 | 3.2 | 9.7 | 0.00 | 1.22 | 0.00 | 53 | 1016.5 |
| 20260902150912 | 21 | 40 | 3.2 | 16.1 | 0.00 | 1.22 | 0.00 | 52 | 1016.5 |
| 20260902150012 | 20 | 223 | 3.2 | 9.7 | 0.00 | 1.22 | 0.00 | 53 | 1016.5 |
| 20260902145412 | 20 | 222 | 4.8 | 11.3 | 0.00 | 1.22 | 0.00 | 54 | 1016.5 |
| 20260902144512 | 20 | 217 | 3.2 | 11.3 | 0.00 | 1.22 | 0.00 | 54 | 1016.5 |
| 20260902143612 | 19 | 217 | 1.6 | 12.9 | 0.00 | 1.22 | 0.00 | 55 | 1016.5 |
| 20260902142712 | 18 | 179 | 3.2 | 12.9 | 0.00 | 1.22 | 0.00 | 55 | 1016.5 |
| 20260902141812 | 18 | 215 | 0.0 | 4.8 | 0.00 | 1.22 | 0.00 | 56 | 1016.5 |
| 20260902140912 | 18 | 215 | 0.0 | 3.2 | 0.00 | 1.22 | 0.00 | 56 | 1016.5 |
| 20260902140012 | 18 | 215 | 0.0 | 4.8 | 0.00 | 1.22 | 0.00 | 55 | 1016.5 |
| 20260902135412 | 18 | 215 | 1.6 | 8.0 | 0.00 | 1.22 | 0.00 | 55 | 1016.5 |
| 20260902134512 | 18 | 164 | 1.6 | 9.7 | 0.00 | 1.22 | 0.00 | 56 | 1016.5 |
| 20260902133612 | 17 | 106 | 1.6 | 9.7 | 0.00 | 1.22 | 0.00 | 57 | 1016.5 |
| 20260902132712 | 17 | 171 | 1.6 | 9.7 | 0.00 | 1.22 | 0.00 | 58 | 1016.5 |
| 20260902131812 | 16 | 144 | 1.6 | 8.0 | 0.00 | 1.22 | 0.00 | 61 | 1016.5 |
| 20260902130912 | 15 | 149 | 0.0 | 1.6 | 0.00 | 1.22 | 0.00 | 65 | 1016.5 |
| 20260902130012 | 14 | 0 | 0.0 | 0.0 | 0.00 | 1.22 | 0.00 | 72 | 1016.5 |
| 20260902125412 | 14 | 0 | 0.0 | 0.0 | 0.00 | 1.22 | 0.00 | 72 | 1016.5 |
| 20260902124512 | 15 | 0 | 0.0 | 0.0 | 0.00 | 1.22 | 0.00 | 70 | 1016.5 |
| 20260902123612 | 15 | 0 | 0.0 | 0.0 | 0.00 | 1.22 | 0.00 | 69 | 1016.5 |
| 20260902122712 | 15 | 0 | 0.0 | 0.0 | 0.00 | 1.22 | 0.00 | 68 | 1016.5 |
| 20260902121833 | 15 | 0 | 0.0 | 1.6 | 0.00 | 1.22 | 0.00 | 67 | 1016.5 |
| 20260902120933 | 15 | 0 | 0.0 | 0.0 | 0.00 | 1.22 | 0.00 | 68 | 1016.5 |
| 20260902120033 | 15 | 0 | 0.0 | 0.0 | 0.00 | 1.22 | 0.00 | 68 | 1016.5 |
| 20260902115412 | 16 | 92 | 0.0 | 4.8 | 0.00 | 1.22 | 0.00 | 66 | 1016.5 |
| 20260902114512 | 16 | 92 | 0.0 | 3.2 | 0.00 | 1.22 | 0.00 | 64 | 1016.5 |
| 20260902113612 | 16 | 92 | 0.0 | 3.2 | 0.00 | 1.22 | 0.00 | 64 | 1016.5 |
| 20260902112712 | 16 | 0 | 0.0 | 1.6 | 0.00 | 1.22 | 0.00 | 63 | 1016.5 |
| 20260902111812 | 16 | 0 | 0.0 | 1.6 | 0.00 | 1.22 | 0.00 | 65 | 1016.5 |
| 20260902110933 | 16 | 0 | 0.0 | 0.0 | 0.00 | 1.22 | 0.00 | 66 | 1016.5 |
| 20260902110012 | 16 | 92 | 0.0 | 4.8 | 0.00 | 1.22 | 0.00 | 65 | 1016.5 |
| 20260902105433 | 16 | 92 | 0.0 | 4.8 | 0.00 | 1.22 | 0.00 | 67 | 1016.5 |
| 20260902104512 | 16 | 92 | 0.0 | 6.4 | 0.00 | 1.22 | 0.00 | 66 | 1016.5 |
| 20260902103612 | 16 | 0 | 0.0 | 0.0 | 0.00 | 1.22 | 0.00 | 66 | 1016.5 |
| 20260902102712 | 16 | 0 | 0.0 | 0.0 | 0.00 | 1.22 | 0.00 | 66 | 1016.5 |
| 20260902101812 | 16 | 0 | 0.0 | 0.0 | 0.00 | 1.22 | 0.00 | 64 | 1016.5 |
| 20260902100912 | 16 | 0 | 0.0 | 1.6 | 0.00 | 1.22 | 0.00 | 66 | 1016.5 |
| 20260902100033 | 15 | 0 | 0.0 | 0.0 | 0.00 | 1.22 | 0.00 | 70 | 1016.5 |
| 20260902095412 | 15 | 0 | 0.0 | 0.0 | 0.00 | 1.22 | 0.00 | 72 | 1016.5 |
| 20260902094512 | 15 | 0 | 0.0 | 0.0 | 0.00 | 1.22 | 0.00 | 70 | 1016.5 |
| 20260902093612 | 15 | 0 | 0.0 | 0.0 | 0.00 | 1.22 | 0.00 | 72 | 1016.5 |
| 20260902092712 | 16 | 0 | 0.0 | 0.0 | 0.00 | 1.22 | 0.00 | 70 | 1016.5 |
| 20260902091812 | 16 | 0 | 0.0 | 0.0 | 0.00 | 1.22 | 0.00 | 71 | 1016.5 |
| 20260902090912 | 16 | 0 | 0.0 | 0.0 | 0.00 | 1.22 | 0.00 | 69 | 1016.5 |
| 20260902090012 | 16 | 0 | 0.0 | 0.0 | 0.00 | 1.22 | 0.00 | 68 | 1016.5 |
| 20260902085412 | 16 | 0 | 0.0 | 0.0 | 0.00 | 1.22 | 0.00 | 67 | 1016.5 |
| 20260902084533 | 16 | 0 | 0.0 | 0.0 | 0.00 | 1.22 | 0.00 | 66 | 1016.5 |
| 20260902083633 | 17 | 0 | 0.0 | 0.0 | 0.00 | 1.22 | 0.00 | 64 | 1016.5 |
| 20260902082712 | 17 | 92 | 0.0 | 3.2 | 0.00 | 1.22 | 0.00 | 64 | 1016.5 |
| 20260902081812 | 17 | 0 | 0.0 | 0.0 | 0.00 | 1.22 | 0.00 | 63 | 1016.5 |
| 20260902080912 | 17 | 0 | 0.0 | 0.0 | 0.00 | 1.22 | 0.00 | 61 | 1016.5 |
| 20260902080012 | 17 | 92 | 0.0 | 4.8 | 0.00 | 1.22 | 0.00 | 61 | 1016.5 |
| 20260902075412 | 18 | 92 | 0.0 | 4.8 | 0.00 | 1.22 | 0.00 | 62 | 1016.5 |
| 20260902074512 | 18 | 95 | 3.2 | 14.5 | 0.00 | 1.22 | 0.00 | 59 | 1016.5 |
| 20260902073612 | 18 | 0 | 0.0 | 0.0 | 0.00 | 1.22 | 0.00 | 60 | 1016.5 |
| 20260902072733 | 18 | 164 | 0.0 | 8.0 | 0.00 | 1.22 | 0.00 | 58 | 1016.5 |
| 20260902071812 | 18 | 0 | 0.0 | 0.0 | 0.00 | 1.22 | 0.00 | 55 | 1016.5 |
| 20260902070912 | 18 | 0 | 0.0 | 0.0 | 0.00 | 1.22 | 0.00 | 56 | 1016.5 |
| 20260902070012 | 18 | 167 | 0.0 | 6.4 | 0.00 | 1.22 | 0.00 | 56 | 1016.5 |
| 20260902065412 | 18 | 0 | 0.0 | 0.0 | 0.00 | 1.22 | 0.00 | 59 | 1016.5 |
| 20260902064533 | 18 | 0 | 0.0 | 0.0 | 0.00 | 1.22 | 0.00 | 60 | 1016.5 |
| 20260902063612 | 18 | 0 | 0.0 | 0.0 | 0.00 | 1.22 | 0.00 | 56 | 1016.5 |
| 20260902062712 | 18 | 0 | 0.0 | 0.0 | 0.00 | 1.22 | 0.00 | 58 | 1016.5 |
| 20260902061812 | 18 | 0 | 0.0 | 0.0 | 0.00 | 1.22 | 0.00 | 58 | 1016.5 |
| 20260902060912 | 18 | 0 | 0.0 | 0.0 | 0.00 | 1.22 | 0.00 | 58 | 1016.5 |
| 20260902060012 | 18 | 167 | 0.0 | 4.8 | 0.00 | 1.22 | 0.00 | 57 | 1016.5 |
| 20260902055412 | 18 | 167 | 0.0 | 1.6 | 0.00 | 1.22 | 1.22 | 59 | 1016.5 |
| 20260902054512 | 19 | 167 | 1.6 | 9.7 | 0.00 | 1.22 | 1.22 | 59 | 1016.5 |
| 20260902053612 | 19 | 0 | 0.0 | 0.0 | 0.00 | 1.22 | 1.22 | 55 | 1016.5 |
| 20260902052733 | 19 | 166 | 0.0 | 6.4 | 0.00 | 1.22 | 1.22 | 55 | 1016.5 |
| 20260902051812 | 19 | 166 | 1.6 | 8.0 | 0.00 | 1.22 | 1.22 | 54 | 1016.5 |
| 20260902050912 | 20 | 179 | 3.2 | 9.7 | 0.00 | 1.22 | 1.22 | 56 | 1016.5 |
| 20260902050012 | 21 | 242 | 1.6 | 8.0 | 0.00 | 1.22 | 1.22 | 50 | 1016.5 |
| 20260902045412 | 21 | 244 | 1.6 | 11.3 | 0.00 | 1.22 | 1.22 | 44 | 1016.5 |
| 20260902044512 | 21 | 244 | 1.6 | 11.3 | 0.00 | 1.22 | 1.22 | 44 | 1016.5 |
| 20260902043633 | 21 | 244 | 1.6 | 6.4 | 0.00 | 1.22 | 1.22 | 45 | 1016.5 |
| 20260902042712 | 21 | 247 | 1.6 | 11.3 | 0.00 | 1.22 | 1.22 | 46 | 1016.5 |
| 20260902041812 | 21 | 245 | 1.6 | 12.9 | 0.00 | 1.22 | 1.22 | 47 | 1016.5 |
| 20260902040933 | 21 | 246 | 1.6 | 11.3 | 0.00 | 1.22 | 1.22 | 47 | 1016.5 |
| 20260902040033 | 21 | 249 | 3.2 | 14.5 | 0.00 | 1.22 | 1.22 | 47 | 1016.5 |
| 20260902035433 | 21 | 251 | 3.2 | 14.5 | 0.00 | 1.22 | 1.22 | 47 | 1016.5 |
| 20260902034512 | 21 | 243 | 1.6 | 9.7 | 0.00 | 1.22 | 1.22 | 49 | 1016.5 |
| 20260902033612 | 21 | 243 | 1.6 | 8.0 | 0.00 | 1.22 | 1.22 | 52 | 1016.5 |
| 20260902032712 | 21 | 244 | 1.6 | 8.0 | 0.00 | 1.22 | 1.22 | 54 | 1016.5 |
| 20260902031812 | 21 | 244 | 1.6 | 11.3 | 0.00 | 1.22 | 1.22 | 55 | 1016.5 |
| 20260902030912 | 21 | 243 | 3.2 | 14.5 | 0.00 | 1.22 | 1.22 | 55 | 1016.5 |
| 20260902030012 | 21 | 239 | 1.6 | 9.7 | 0.00 | 1.22 | 1.22 | 56 | 1016.5 |
| 20260902025412 | 21 | 239 | 1.6 | 9.7 | 0.00 | 1.22 | 1.22 | 57 | 1016.5 |
| 20260902024512 | 21 | 239 | 3.2 | 9.7 | 0.00 | 1.22 | 1.22 | 58 | 1016.5 |
| 20260902023633 | 21 | 240 | 3.2 | 9.7 | 0.00 | 1.22 | 1.22 | 58 | 1016.5 |
| 20260902022712 | 21 | 240 | 3.2 | 12.9 | 0.00 | 1.22 | 1.22 | 58 | 1016.5 |
| 20260902021812 | 21 | 240 | 3.2 | 8.0 | 0.00 | 1.22 | 1.22 | 57 | 1016.5 |
| 20260902020912 | 21 | 240 | 1.6 | 6.4 | 0.00 | 1.22 | 1.22 | 58 | 1016.5 |
| 20260902020012 | 21 | 240 | 1.6 | 6.4 | 0.00 | 1.22 | 1.22 | 59 | 1016.5 |
| 20260902015412 | 21 | 240 | 1.6 | 8.0 | 0.00 | 1.22 | 1.22 | 58 | 1016.5 |
| 20260902014512 | 21 | 240 | 0.0 | 6.4 | 0.00 | 1.22 | 1.22 | 58 | 1016.5 |
| 20260902013612 | 21 | 240 | 1.6 | 8.0 | 0.00 | 1.22 | 1.22 | 56 | 1016.5 |
| 20260902012712 | 22 | 240 | 1.6 | 8.0 | 0.00 | 1.22 | 1.22 | 56 | 1016.5 |
| 20260902011812 | 22 | 225 | 1.6 | 8.0 | 0.00 | 1.22 | 1.22 | 55 | 1016.5 |
| 20260902010933 | 22 | 215 | 1.6 | 8.0 | 0.00 | 1.22 | 1.22 | 56 | 1016.5 |
| 20260902010012 | 21 | 0 | 0.0 | 0.0 | 0.00 | 1.22 | 1.22 | 55 | 1016.5 |
| 20260902005412 | 22 | 153 | 0.0 | 8.0 | 0.00 | 1.22 | 1.22 | 56 | 1016.5 |
| 20260902004512 | 22 | 0 | 0.0 | 0.0 | 0.00 | 1.22 | 1.22 | 58 | 1016.5 |
| 20260902003612 | 22 | 88 | 0.0 | 4.8 | 0.00 | 1.22 | 1.22 | 57 | 1016.5 |
| 20260902002712 | 22 | 89 | 1.6 | 11.3 | 0.00 | 1.22 | 1.22 | 52 | 1016.5 |
| 20260902001812 | 23 | 106 | 1.6 | 11.3 | 0.00 | 1.22 | 1.22 | 52 | 1016.5 |
| 20260902000912 | 23 | 207 | 1.6 | 12.9 | 0.00 | 1.22 | 1.22 | 53 | 1016.5 |
| 20260902000012 | 23 | 222 | 1.6 | 12.9 | 0.00 | 1.22 | 1.22 | 51 | 1016.5 |
| 20260901235412 | 23 | 0 | 0.0 | 0.0 | 0.03 | 1.22 | 1.22 | 48 | 1016.5 |
| 20260901234512 | 22 | 285 | 0.0 | 4.8 | 0.03 | 1.22 | 1.22 | 58 | 1016.5 |
| 20260901233612 | 21 | 273 | 1.6 | 6.4 | 0.03 | 1.22 | 1.22 | 61 | 1016.5 |
| 20260901232712 | 21 | 274 | 0.0 | 3.2 | 0.03 | 1.22 | 1.22 | 65 | 1016.5 |
| 20260901231812 | 20 | 0 | 0.0 | 0.0 | 0.03 | 1.22 | 1.22 | 66 | 1016.5 |
| 20260901230912 | 20 | 0 | 0.0 | 1.6 | 0.03 | 1.22 | 1.22 | 71 | 1016.5 |
| 20260901230012 | 19 | 0 | 0.0 | 1.6 | 0.03 | 1.22 | 1.22 | 77 | 1016.5 |
| 20260901225412 | 18 | 0 | 0.0 | 0.0 | 0.03 | 1.19 | 1.19 | 82 | 1016.5 |
| 20260901224512 | 17 | 239 | 1.6 | 12.9 | 0.10 | 1.19 | 1.19 | 78 | 1016.5 |
| 20260901223633 | 17 | 231 | 3.2 | 14.5 | 0.33 | 1.19 | 1.19 | 81 | 1016.5 |
| 20260901222712 | 17 | 232 | 1.6 | 8.0 | 0.79 | 1.19 | 1.19 | 80 | 1016.5 |
| 20260901221812 | 16 | 0 | 0.0 | 0.0 | 1.19 | 1.19 | 1.19 | 86 | 1016.5 |
| 20260901220912 | 16 | 0 | 0.0 | 1.6 | 1.19 | 1.19 | 1.19 | 86 | 1016.5 |
| 20260901220012 | 16 | 0 | 0.0 | 0.0 | 1.19 | 1.19 | 1.19 | 85 | 1016.5 |
| 20260901215412 | 16 | 0 | 0.0 | 0.0 | 1.17 | 1.17 | 1.17 | 83 | 1016.5 |
| 20260901214512 | 16 | 241 | 1.6 | 12.9 | 1.09 | 1.09 | 1.09 | 80 | 1016.5 |
| 20260901213612 | 16 | 229 | 9.7 | 41.8 | 0.86 | 0.86 | 0.86 | 76 | 1016.5 |
| 20260901212712 | 18 | 211 | 24.1 | 54.7 | 0.41 | 0.41 | 0.41 | 67 | 1016.5 |
| 20260901211812 | 25 | 210 | 6.4 | 40.2 | 0.00 | 0.00 | 0.00 | 51 | 1016.5 |
| 20260901210912 | 25 | 42 | 1.6 | 8.0 | 0.00 | 0.00 | 0.00 | 45 | 1016.5 |
| 20260901210012 | 26 | 47 | 1.6 | 11.3 | 0.00 | 0.00 | 0.00 | 44 | 1016.5 |
| 20260901205412 | 26 | 49 | 4.8 | 14.5 | 0.00 | 0.00 | 0.00 | 42 | 1016.5 |
| 20260901204512 | 27 | 52 | 4.8 | 14.5 | 0.00 | 0.00 | 0.00 | 43 | 1016.5 |
| 20260901203633 | 27 | 49 | 0.0 | 4.8 | 0.00 | 0.00 | 0.00 | 42 | 1016.5 |
| 20260901202712 | 26 | 44 | 1.6 | 11.3 | 0.00 | 0.00 | 0.00 | 43 | 1016.5 |
| 20260901201812 | 27 | 41 | 3.2 | 14.5 | 0.00 | 0.00 | 0.00 | 42 | 1016.5 |
| 20260901200933 | 26 | 46 | 4.8 | 14.5 | 0.00 | 0.00 | 0.00 | 42 | 1016.5 |
| 20260901200012 | 26 | 46 | 1.6 | 9.7 | 0.00 | 0.00 | 0.00 | 43 | 1016.5 |
| 20260901195433 | 26 | 40 | 3.2 | 11.3 | 0.00 | 0.00 | 0.00 | 44 | 1016.5 |
| 20260901194512 | 26 | 37 | 3.2 | 14.5 | 0.00 | 0.00 | 0.00 | 44 | 1016.5 |
| 20260901193633 | 26 | 34 | 4.8 | 14.5 | 0.00 | 0.00 | 0.00 | 44 | 1016.5 |
| 20260901192712 | 25 | 33 | 0.0 | 6.4 | 0.00 | 0.00 | 0.00 | 45 | 1016.5 |
| 20260901191833 | 25 | 34 | 1.6 | 8.0 | 0.00 | 0.00 | 0.00 | 45 | 1016.5 |
| 20260901190912 | 25 | 24 | 3.2 | 12.9 | 0.00 | 0.00 | 0.00 | 46 | 1016.5 |
| 20260901190012 | 25 | 17 | 0.0 | 6.4 | 0.00 | 0.00 | 0.00 | 45 | 1016.5 |
| 20260901185412 | 25 | 16 | 1.6 | 8.0 | 0.00 | 0.00 | 0.00 | 46 | 1016.5 |
| 20260901184533 | 25 | 15 | 3.2 | 8.0 | 0.00 | 0.00 | 0.00 | 46 | 1016.5 |
| 20260901183612 | 25 | 24 | 6.4 | 14.5 | 0.00 | 0.00 | 0.00 | 49 | 1016.5 |
| 20260901182733 | 25 | 38 | 4.8 | 9.7 | 0.00 | 0.00 | 0.00 | 50 | 1016.5 |
| 20260901181812 | 24 | 31 | 3.2 | 9.7 | 0.00 | 0.00 | 0.00 | 52 | 1016.5 |
| 20260901180912 | 23 | 33 | 3.2 | 9.7 | 0.00 | 0.00 | 0.00 | 55 | 1016.5 |
| 20260901180012 | 23 | 36 | 1.6 | 8.0 | 0.00 | 0.00 | 0.00 | 55 | 1016.5 |
| 20260901175433 | 23 | 36 | 1.6 | 9.7 | 0.00 | 0.00 | 0.00 | 58 | 1016.5 |
| 20260901174512 | 23 | 36 | 0.0 | 6.4 | 0.00 | 0.00 | 0.00 | 57 | 1016.5 |
| 20260901173633 | 22 | 36 | 1.6 | 9.7 | 0.00 | 0.00 | 0.00 | 58 | 1016.5 |
| 20260901172712 | 22 | 38 | 3.2 | 8.0 | 0.00 | 0.00 | 0.00 | 61 | 1016.5 |
| 20260901171812 | 22 | 38 | 1.6 | 8.0 | 0.00 | 0.00 | 0.00 | 62 | 1016.5 |
| 20260901170912 | 22 | 38 | 1.6 | 9.7 | 0.00 | 0.00 | 0.00 | 61 | 1016.5 |
| 20260901170012 | 22 | 40 | 0.0 | 6.4 | 0.00 | 0.00 | 0.00 | 60 | 1016.5 |